Starlink 33941

operational
NORAD ID: 63765 Int'l Des: 2025-089 Owner: SPXS Country: US Constellation: starlink
LEOCIRCULAR

关于 Starlink 33941

正在加载描述...

实时位置

正在加载3D地球...

即将过境

高度历史

Altitude vs Time

uPlot chart will show altitude changes over time

两行轨道根数

1 63765U 25089Q 26036.89793806 .00031172 00000-0 11358-2 0 9992
2 63765 43.0026 224.9306 0002183 274.4671 85.5932 15.27629177 44080
Epoch: Feb 5, 2026 • Age: 14 hours

当前状态

高度 492.7 km
速度 7.62 km/s
星下点 -37.68°S, 153.09°E
发射日期 Apr 29, 2025
运行时间 0.7 years
类型 internet

技术详情

分类 Payload
质量 575.00 kg
干质量 530.00 kg
总质量 575.00 kg
长度 0.30 m
直径 4.10 m
跨度 29.00 m
形状 Box + pan
制造商 SPXS
平台类型 Starlink V2MO
阶段状态 In Orbit
所有者/国家 SPXS/US

大型星座

Loading constellations...